Location: Juiz de Fora
(21.7500°S, 43.3330°W)
Time: 05:39:38
(UTC-03:00)

Hubble Space Telescope - Pass Details

Date: 22 June 2024
Orbit: 510 x 513 km, 28.5° (Epoch: 17 July)

Event Time Altitude Azimuth Distance (km) Brightness Sun altitude
Rises 18:06:16 0° 278° (W) 2,616 6.1 -10.8°
Reaches altitude 10° 18:08:32 10° 272° (W) 1,733 4.7 -11.3°
Maximum altitude 18:12:27 52° 195° (SSW) 643 1.1 -12.1°
Enters shadow 18:15:05 19° 124° (SE) 1,262 2.0 -12.7°
